[Date Prev][Date Next][Thread Prev][Thread Next] - [Date Index][Thread Index][Author Index]

2 Line ISS Keps 8-4



ISS 
1 25544U 98067A   03215.82730297  .00013164  00000-0  16020-3 0  2922
2 25544  51.6317 140.4962 0008302  83.3060  33.6010 15.60865267268447



----
Via the sarex mailing list at AMSAT.ORG courtesy of AMSAT-NA.
To unsubscribe, send "unsubscribe sarex" to Majordomo@amsat.org



AMSAT Top AMSAT Home